QPF
0.00 0.00 0.00 0.00 0.00 0.00 0.00 0.00 0.00 0.00 0.00 0.00 0.00 0.00 0.00 0.00 0.00 0.00 0.00 0.00 0.00 0.00 0.00 0.00 0.00 0.00 0.00 0.00 0.00 0.00 0.00 0.00 0.00 0.00 0.00 0.00 0.00 0.00 0.00 0.00 0.00 0.00 0.00
0.00 0.00 0.00 0.00 0.00 0.00 0.00 0.00 0.00 0.00 0.00 0.00 0.00 0.00 0.00 0.00 0.00 0.00 0.00 0.00 0.00 0.00 0.00 0.00 0.00 0.00 0.00 0.00 0.00 0.00 0.00 0.00 0.00 0.00 0.00 0.00 0.00 0.00 0.00 0.00 0.00 0.00 0.00
0.00 0.00 0.00 0.00 0.00 0.00 0.00 0.00 0.00 0.00 0.00 0.00 0.00 0.00 0.00 0.00 0.00 0.00 0.00 0.00 0.00 0.00 0.00 0.00 0.00 0.00 0.00 0.00 0.00 0.00 0.00 0.00 0.00 0.00 0.00 0.00 0.00 0.00 0.00 0.00 0.00 0.00 0.00
0.00 0.00 0.00 0.00 0.00 0.00 0.00 0.00 0.00 0.00 0.00 0.00 0.00 0.00 0.00 0.00 0.00 0.00 0.00 0.00 0.00 0.00 0.00 0.00 0.00 0.00 0.00 0.00 0.00 0.00 0.00 0.00 0.00 0.00 0.00 0.00 0.01 0.00 0.00 0.00 0.00 0.00 0.00
0.00 0.00 0.00 0.00 0.00 0.00 0.00 0.00 0.00 0.00 0.00 0.00 0.00 0.00 0.00 0.00 0.00 0.00 0.00 0.00 0.00 0.00 0.00 0.00 0.00 0.00 0.00 0.00 0.00 0.00 0.00 0.00 0.00 0.00 0.00 0.00 0.01 0.01 0.01 0.00 0.00 0.00 0.00
0.00 0.00 0.00 0.00 0.00 0.00 0.00 0.00 0.00 0.00 0.00 0.00 0.00 0.00 0.00 0.00 0.00 0.00 0.00 0.00 0.00 0.00 0.00 0.00 0.00 0.00 0.00 0.00 0.00 0.00 0.00 0.00 0.00 0.00 0.00 0.00 0.01 0.01 0.03 0.02 0.01 0.00 0.00
0.00 0.00 0.00 0.00 0.00 0.00 0.00 0.00 0.00 0.00 0.00 0.00 0.00 0.00 0.00 0.00 0.00 0.00 0.00 0.00 0.00 0.00 0.00 0.00 0.00 0.00 0.00 0.00 0.00 0.00 0.00 0.00 0.00 0.00 0.00 0.01 0.02 0.02 0.05 0.04 0.03 0.01 0.00
0.00 0.00 0.00 0.00 0.00 0.00 0.00 0.00 0.00 0.00 0.00 0.00 0.00 0.00 0.00 0.00 0.00 0.00 0.00 0.00 0.00 0.00 0.00 0.00 0.00 0.00 0.00 0.00 0.00 0.00 0.00 0.00 0.00 0.00 0.00 0.00 0.01 0.02 0.06 0.06 0.04 0.02 0.01
0.00 0.00 0.00 0.00 0.00 0.00 0.00 0.00 0.00 0.00 0.00 0.00 0.00 0.00 0.00 0.00 0.00 0.00 0.00 0.00 0.00 0.00 0.00 0.00 0.00 0.00 0.00 0.00 0.00 0.00 0.00 0.00 0.00 0.00 0.00 0.00 0.01 0.04 0.11 0.08 0.04 0.03 0.02
0.00 0.00 0.00 0.00 0.00 0.00 0.00 0.00 0.00 0.00 0.00 0.00 0.00 0.00 0.00 0.00 0.00 0.00 0.00 0.00 0.00 0.00 0.00 0.00 0.00 0.00 0.00 0.00 0.00 0.00 0.00 0.00 0.00 0.00 0.00 0.00 0.01 0.07 0.13 0.08 0.06 0.04 0.03
0.00 0.00 0.00 0.00 0.00 0.00 0.00 0.00 0.00 0.00 0.00 0.00 0.00 0.00 0.00 0.00 0.00 0.00 0.00 0.00 0.00 0.00 0.00 0.00 0.00 0.00 0.00 0.00 0.01 0.01 0.01 0.00 0.00 0.00 0.00 0.00 0.01 0.06 0.10 0.08 0.06 0.05 0.03
0.00 0.00 0.00 0.00 0.00 0.00 0.00 0.00 0.00 0.00 0.00 0.00 0.00 0.00 0.00 0.00 0.00 0.00 0.00 0.00 0.00 0.00 0.00 0.00 0.00 0.00 0.00 0.00 0.01 0.03 0.01 0.00 0.01 0.02 0.03 0.01 0.02 0.05 0.08 0.06 0.04 0.04 0.03
0.00 0.00 0.00 0.00 0.00 0.00 0.00 0.00 0.00 0.00 0.00 0.00 0.00 0.00 0.00 0.00 0.00 0.00 0.00 0.00 0.00 0.01 0.00 0.00 0.00 0.00 0.00 0.00 0.00 0.01 0.01 0.01 0.02 0.05 0.05 0.03 0.05 0.06 0.06 0.05 0.04 0.04 0.04
0.00 0.00 0.00 0.00 0.00 0.00 0.00 0.00 0.00 0.00 0.00 0.00 0.00 0.00 0.00 0.00 0.00 0.00 0.00 0.00 0.00 0.00 0.00 0.00 0.00 0.00 0.00 0.00 0.01 0.01 0.01 0.02 0.03 0.05 0.05 0.04 0.04 0.03 0.04 0.04 0.03 0.03 0.03
0.00 0.00 0.00 0.00 0.00 0.00 0.00 0.00 0.00 0.00 0.00 0.00 0.00 0.00 0.00 0.00 0.00 0.00 0.00 0.00 0.00 0.00 0.01 0.00 0.00 0.01 0.01 0.01 0.01 0.01 0.03 0.04 0.03 0.03 0.03 0.01 0.01 0.01 0.02 0.03 0.04 0.04 0.03
0.00 0.01 0.00 0.00 0.00 0.00 0.00 0.00 0.00 0.00 0.00 0.00 0.00 0.00 0.00 0.00 0.00 0.00 0.00 0.00 0.00 0.00 0.00 0.01 0.01 0.01 0.01 0.01 0.01 0.01 0.02 0.03 0.03 0.03 0.04 0.03 0.02 0.01 0.01 0.03 0.05 0.05 0.05
0.01 0.02 0.01 0.01 0.01 0.01 0.00 0.01 0.01 0.01 0.01 0.01 0.01 0.00 0.00 0.00 0.00 0.00 0.00 0.00 0.00 0.00 0.00 0.00 0.00 0.01 0.01 0.01 0.02 0.03 0.04 0.04 0.05 0.03 0.04 0.06 0.05 0.03 0.01 0.02 0.04 0.06 0.07
0.03 0.03 0.04 0.06 0.06 0.04 0.02 0.02 0.02 0.01 0.01 0.02 0.02 0.03 0.02 0.03 0.03 0.04 0.03 0.02 0.02 0.02 0.02 0.03 0.03 0.03 0.04 0.04 0.05 0.06 0.05 0.04 0.03 0.03 0.03 0.06 0.07 0.06 0.03 0.02 0.03 0.05 0.07
0.07 0.11 0.18 0.20 0.19 0.13 0.09 0.08 0.06 0.04 0.02 0.03 0.05 0.06 0.06 0.08 0.09 0.09 0.07 0.07 0.08 0.08 0.09 0.10 0.10 0.09 0.08 0.08 0.08 0.07 0.05 0.04 0.03 0.03 0.04 0.04 0.04 0.05 0.05 0.04 0.03 0.04 0.09
0.15 0.23 0.27 0.32 0.33 0.34 0.33 0.22 0.15 0.11 0.08 0.08 0.08 0.07 0.08 0.11 0.15 0.20 0.20 0.21 0.22 0.22 0.20 0.20 0.17 0.14 0.13 0.12 0.09 0.05 0.04 0.04 0.02 0.03 0.04 0.03 0.03 0.02 0.03 0.06 0.07 0.06 0.12
0.17 0.21 0.28 0.35 0.35 0.33 0.30 0.24 0.20 0.18 0.20 0.15 0.13 0.13 0.13 0.15 0.22 0.35 0.38 0.38 0.39 0.36 0.32 0.30 0.24 0.18 0.14 0.15 0.11 0.06 0.04 0.02 0.01 0.01 0.01 0.02 0.02 0.02 0.02 0.05 0.08 0.09 0.11
0.14 0.13 0.14 0.18 0.23 0.25 0.26 0.24 0.21 0.18 0.13 0.11 0.15 0.18 0.21 0.26 0.32 0.42 0.49 0.53 0.52 0.47 0.37 0.28 0.24 0.18 0.13 0.15 0.14 0.11 0.06 0.03 0.01 0.02 0.04 0.06 0.08 0.08 0.08 0.08 0.06 0.07 0.10
0.04 0.06 0.08 0.09 0.11 0.11 0.12 0.14 0.18 0.19 0.13 0.13 0.18 0.21 0.27 0.37 0.44 0.50 0.52 0.50 0.43 0.36 0.26 0.20 0.21 0.18 0.13 0.13 0.15 0.15 0.13 0.10 0.07 0.03 0.04 0.08 0.12 0.13 0.14 0.13 0.11 0.09 0.08
0.01 0.01 0.02 0.02 0.03 0.03 0.03 0.05 0.09 0.10 0.09 0.12 0.20 0.16 0.14 0.18 0.24 0.27 0.29 0.33 0.29 0.26 0.20 0.18 0.20 0.17 0.12 0.10 0.12 0.14 0.16 0.20 0.19 0.10 0.03 0.03 0.05 0.08 0.09 0.08 0.09 0.08 0.08
0.00 0.00 0.00 0.00 0.00 0.00 0.01 0.02 0.03 0.03 0.04 0.05 0.08 0.07 0.05 0.06 0.09 0.12 0.16 0.19 0.17 0.17 0.16 0.16 0.16 0.12 0.10 0.08 0.09 0.12 0.15 0.18 0.21 0.17 0.09 0.05 0.03 0.02 0.02 0.02 0.04 0.06 0.09
0.00 0.00 0.00 0.00 0.00 0.00 0.00 0.01 0.01 0.01 0.01 0.01 0.02 0.03 0.03 0.05 0.05 0.07 0.09 0.11 0.12 0.12 0.11 0.10 0.10 0.09 0.07 0.06 0.07 0.09 0.12 0.15 0.19 0.22 0.17 0.12 0.06 0.02 0.03 0.04 0.05 0.06 0.10
MSLP
1012.62 1012.27 1012.14 1012.27 1012.62 1013.10 1013.61 1014.03 1014.30 1014.40 1014.37 1014.28 1014.20 1014.19 1014.30 1014.49 1014.73 1014.97 1015.16 1015.26 1015.28 1015.25 1015.20 1015.17 1015.20 1015.28 1015.41 1015.56 1015.69 1015.79 1015.85 1015.87 1015.87 1015.88 1015.90 1015.94 1016.01 1016.08 1016.14 1016.20 1016.23 1016.27 1016.31
1012.14 1011.93 1011.94 1012.18 1012.62 1013.14 1013.66 1014.07 1014.32 1014.41 1014.39 1014.33 1014.30 1014.35 1014.50 1014.73 1014.99 1015.23 1015.39 1015.45 1015.44 1015.37 1015.31 1015.27 1015.30 1015.38 1015.50 1015.63 1015.75 1015.83 1015.87 1015.88 1015.89 1015.91 1015.96 1016.03 1016.12 1016.20 1016.27 1016.31 1016.34 1016.36 1016.39
1011.62 1011.54 1011.67 1012.02 1012.52 1013.08 1013.61 1014.01 1014.26 1014.36 1014.36 1014.34 1014.37 1014.48 1014.67 1014.93 1015.18 1015.39 1015.51 1015.54 1015.49 1015.40 1015.32 1015.28 1015.31 1015.39 1015.51 1015.62 1015.72 1015.78 1015.80 1015.82 1015.84 1015.89 1015.97 1016.07 1016.19 1016.29 1016.36 1016.40 1016.41 1016.42 1016.45
1011.13 1011.16 1011.39 1011.82 1012.37 1012.96 1013.49 1013.89 1014.14 1014.25 1014.29 1014.31 1014.39 1014.54 1014.77 1015.02 1015.26 1015.43 1015.51 1015.50 1015.42 1015.32 1015.24 1015.22 1015.25 1015.34 1015.46 1015.56 1015.64 1015.67 1015.69 1015.70 1015.74 1015.81 1015.93 1016.07 1016.21 1016.32 1016.40 1016.44 1016.45 1016.46 1016.49
1010.76 1010.87 1011.18 1011.65 1012.23 1012.82 1013.34 1013.73 1013.97 1014.10 1014.16 1014.23 1014.34 1014.53 1014.76 1015.01 1015.22 1015.35 1015.38 1015.34 1015.25 1015.15 1015.09 1015.10 1015.16 1015.27 1015.39 1015.48 1015.54 1015.56 1015.56 1015.57 1015.61 1015.71 1015.84 1016.00 1016.16 1016.29 1016.37 1016.40 1016.41 1016.43 1016.47
1010.57 1010.74 1011.09 1011.59 1012.16 1012.73 1013.22 1013.58 1013.80 1013.93 1014.00 1014.10 1014.24 1014.44 1014.67 1014.89 1015.07 1015.16 1015.16 1015.09 1015.00 1014.93 1014.90 1014.95 1015.06 1015.19 1015.32 1015.41 1015.46 1015.46 1015.44 1015.43 1015.47 1015.56 1015.70 1015.87 1016.03 1016.15 1016.22 1016.25 1016.26 1016.29 1016.35
1010.57 1010.79 1011.17 1011.67 1012.22 1012.74 1013.17 1013.48 1013.66 1013.77 1013.85 1013.95 1014.10 1014.30 1014.52 1014.72 1014.85 1014.91 1014.88 1014.80 1014.72 1014.68 1014.70 1014.80 1014.95 1015.11 1015.26 1015.35 1015.37 1015.35 1015.30 1015.27 1015.29 1015.36 1015.49 1015.64 1015.78 1015.89 1015.94 1015.97 1015.98 1016.01 1016.10
1010.76 1011.01 1011.41 1011.89 1012.40 1012.86 1013.21 1013.45 1013.58 1013.65 1013.71 1013.81 1013.96 1014.15 1014.35 1014.52 1014.62 1014.64 1014.59 1014.51 1014.44 1014.43 1014.50 1014.64 1014.83 1015.02 1015.17 1015.26 1015.27 1015.21 1015.13 1015.07 1015.05 1015.09 1015.18 1015.29 1015.41 1015.48 1015.52 1015.53 1015.54 1015.58 1015.69
1011.03 1011.33 1011.74 1012.20 1012.66 1013.04 1013.32 1013.48 1013.54 1013.57 1013.61 1013.70 1013.84 1014.02 1014.20 1014.34 1014.41 1014.40 1014.33 1014.24 1014.18 1014.19 1014.28 1014.45 1014.66 1014.87 1015.03 1015.10 1015.09 1015.01 1014.90 1014.79 1014.73 1014.73 1014.77 1014.85 1014.92 1014.96 1014.98 1014.97 1014.98 1015.03 1015.16
1011.29 1011.64 1012.06 1012.51 1012.91 1013.22 1013.42 1013.51 1013.52 1013.51 1013.53 1013.61 1013.74 1013.92 1014.08 1014.20 1014.24 1014.21 1014.11 1014.01 1013.94 1013.95 1014.05 1014.22 1014.44 1014.65 1014.79 1014.85 1014.82 1014.72 1014.58 1014.44 1014.34 1014.29 1014.30 1014.32 1014.35 1014.37 1014.36 1014.35 1014.35 1014.42 1014.56
1011.43 1011.83 1012.27 1012.70 1013.06 1013.31 1013.45 1013.48 1013.45 1013.42 1013.43 1013.51 1013.65 1013.82 1013.98 1014.08 1014.10 1014.04 1013.92 1013.80 1013.71 1013.70 1013.78 1013.94 1014.14 1014.33 1014.46 1014.51 1014.46 1014.34 1014.19 1014.03 1013.90 1013.82 1013.78 1013.77 1013.76 1013.75 1013.73 1013.71 1013.73 1013.80 1013.95
1011.37 1011.81 1012.27 1012.69 1013.02 1013.23 1013.32 1013.32 1013.28 1013.25 1013.27 1013.37 1013.52 1013.69 1013.85 1013.94 1013.94 1013.86 1013.72 1013.57 1013.46 1013.43 1013.48 1013.60 1013.77 1013.93 1014.04 1014.08 1014.03 1013.91 1013.75 1013.58 1013.43 1013.33 1013.26 1013.22 1013.19 1013.16 1013.13 1013.12 1013.14 1013.23 1013.39
1011.08 1011.56 1012.02 1012.43 1012.74 1012.93 1013.00 1013.00 1012.98 1012.97 1013.02 1013.14 1013.31 1013.49 1013.65 1013.73 1013.72 1013.63 1013.48 1013.31 1013.18 1013.11 1013.13 1013.22 1013.35 1013.48 1013.58 1013.61 1013.56 1013.45 1013.30 1013.14 1012.99 1012.87 1012.78 1012.71 1012.66 1012.61 1012.58 1012.58 1012.62 1012.72 1012.89
1010.63 1011.10 1011.56 1011.95 1012.24 1012.42 1012.51 1012.53 1012.54 1012.57 1012.66 1012.81 1012.99 1013.18 1013.33 1013.41 1013.40 1013.30 1013.15 1012.97 1012.83 1012.75 1012.75 1012.81 1012.91 1013.02 1013.11 1013.14 1013.11 1013.01 1012.88 1012.73 1012.58 1012.45 1012.33 1012.24 1012.16 1012.11 1012.07 1012.08 1012.13 1012.24 1012.42
1010.10 1010.54 1010.96 1011.32 1011.60 1011.78 1011.89 1011.95 1012.01 1012.09 1012.21 1012.38 1012.57 1012.75 1012.89 1012.96 1012.94 1012.85 1012.70 1012.55 1012.42 1012.35 1012.34 1012.39 1012.49 1012.59 1012.67 1012.71 1012.69 1012.62 1012.51 1012.37 1012.21 1012.06 1011.92 1011.79 1011.68 1011.60 1011.55 1011.56 1011.62 1011.74 1011.93
1009.63 1010.01 1010.36 1010.67 1010.92 1011.11 1011.25 1011.36 1011.46 1011.58 1011.73 1011.90 1012.07 1012.22 1012.32 1012.36 1012.34 1012.26 1012.15 1012.03 1011.95 1011.91 1011.93 1011.99 1012.10 1012.20 1012.29 1012.34 1012.34 1012.28 1012.18 1012.04 1011.87 1011.68 1011.50 1011.32 1011.16 1011.04 1010.96 1010.96 1011.02 1011.15 1011.34
1009.32 1009.61 1009.88 1010.13 1010.35 1010.53 1010.70 1010.85 1010.99 1011.13 1011.28 1011.41 1011.53 1011.62 1011.67 1011.67 1011.63 1011.56 1011.49 1011.44 1011.41 1011.44 1011.51 1011.62 1011.74 1011.86 1011.96 1012.02 1012.03 1011.98 1011.87 1011.72 1011.52 1011.29 1011.04 1010.80 1010.57 1010.39 1010.28 1010.24 1010.29 1010.42 1010.62
1009.25 1009.42 1009.59 1009.77 1009.95 1010.13 1010.31 1010.49 1010.65 1010.80 1010.91 1010.99 1011.03 1011.03 1010.99 1010.94 1010.87 1010.81 1010.78 1010.80 1010.85 1010.96 1011.10 1011.26 1011.42 1011.56 1011.67 1011.74 1011.74 1011.69 1011.57 1011.39 1011.15 1010.86 1010.54 1010.22 1009.92 1009.67 1009.50 1009.42 1009.45 1009.57 1009.77
1009.40 1009.45 1009.53 1009.63 1009.76 1009.93 1010.12 1010.32 1010.48 1010.61 1010.68 1010.67 1010.61 1010.50 1010.36 1010.22 1010.12 1010.06 1010.08 1010.16 1010.30 1010.48 1010.69 1010.91 1011.11 1011.28 1011.39 1011.46 1011.46 1011.39 1011.25 1011.03 1010.75 1010.40 1010.02 1009.62 1009.24 1008.92 1008.69 1008.56 1008.55 1008.66 1008.85
1009.71 1009.66 1009.64 1009.67 1009.76 1009.92 1010.11 1010.31 1010.47 1010.57 1010.57 1010.48 1010.30 1010.06 1009.82 1009.60 1009.44 1009.38 1009.42 1009.56 1009.77 1010.03 1010.31 1010.57 1010.81 1010.99 1011.11 1011.17 1011.16 1011.07 1010.91 1010.67 1010.35 1009.96 1009.52 1009.06 1008.61 1008.23 1007.93 1007.76 1007.71 1007.78 1007.96
1010.08 1009.94 1009.84 1009.82 1009.88 1010.02 1010.21 1010.41 1010.57 1010.63 1010.57 1010.39 1010.10 1009.76 1009.40 1009.10 1008.89 1008.81 1008.86 1009.04 1009.30 1009.61 1009.94 1010.24 1010.49 1010.68 1010.80 1010.85 1010.83 1010.74 1010.57 1010.32 1009.98 1009.57 1009.10 1008.60 1008.11 1007.68 1007.34 1007.12 1007.03 1007.07 1007.21
1010.39 1010.20 1010.04 1009.98 1010.02 1010.15 1010.35 1010.55 1010.70 1010.74 1010.63 1010.38 1010.01 1009.57 1009.13 1008.75 1008.48 1008.37 1008.42 1008.60 1008.89 1009.23 1009.58 1009.90 1010.16 1010.35 1010.47 1010.52 1010.49 1010.41 1010.24 1010.00 1009.68 1009.28 1008.81 1008.31 1007.81 1007.36 1006.98 1006.73 1006.60 1006.60 1006.71
1010.55 1010.33 1010.16 1010.07 1010.10 1010.24 1010.44 1010.65 1010.81 1010.84 1010.71 1010.42 1009.99 1009.49 1008.98 1008.54 1008.22 1008.06 1008.08 1008.25 1008.52 1008.86 1009.21 1009.52 1009.78 1009.97 1010.09 1010.14 1010.13 1010.07 1009.93 1009.73 1009.45 1009.09 1008.67 1008.20 1007.73 1007.28 1006.91 1006.63 1006.47 1006.43 1006.49
1010.53 1010.32 1010.15 1010.06 1010.10 1010.24 1010.45 1010.68 1010.85 1010.89 1010.77 1010.47 1010.02 1009.48 1008.93 1008.43 1008.06 1007.84 1007.81 1007.93 1008.17 1008.48 1008.80 1009.10 1009.35 1009.53 1009.66 1009.73 1009.75 1009.72 1009.64 1009.50 1009.29 1009.00 1008.65 1008.25 1007.83 1007.43 1007.08 1006.80 1006.62 1006.53 1006.54
1010.37 1010.19 1010.04 1009.97 1010.01 1010.16 1010.39 1010.64 1010.83 1010.90 1010.79 1010.51 1010.06 1009.52 1008.93 1008.39 1007.96 1007.68 1007.57 1007.62 1007.79 1008.04 1008.32 1008.59 1008.83 1009.02 1009.16 1009.26 1009.32 1009.35 1009.33 1009.27 1009.14 1008.95 1008.69 1008.38 1008.05 1007.71 1007.40 1007.14 1006.95 1006.83 1006.77
1010.14 1010.00 1009.88 1009.83 1009.88 1010.04 1010.28 1010.55 1010.76 1010.86 1010.79 1010.54 1010.11 1009.57 1008.97 1008.38 1007.89 1007.52 1007.32 1007.28 1007.36 1007.53 1007.76 1007.99 1008.22 1008.42 1008.59 1008.74 1008.85 1008.94 1008.99 1009.01 1008.97 1008.87 1008.72 1008.51 1008.27 1008.02 1007.77 1007.54 1007.35 1007.21 1007.11
Thickness
5825 5826 5823 5820 5816 5812 5810 5808 5806 5804 5803 5801 5799 5797 5794 5792 5789 5787 5785 5782 5780 5778 5776 5774 5772 5769 5767 5766 5764 5763 5761 5759 5757 5756 5754 5752 5751 5751 5750 5749 5748 5747 5746
5834 5829 5826 5822 5818 5815 5812 5809 5807 5805 5803 5801 5799 5797 5795 5792 5790 5787 5785 5783 5781 5779 5777 5775 5772 5770 5768 5765 5763 5762 5760 5758 5757 5755 5753 5752 5750 5750 5749 5749 5748 5747 5746
5837 5832 5828 5824 5821 5817 5814 5811 5808 5805 5803 5801 5799 5797 5795 5792 5790 5787 5785 5783 5781 5779 5777 5775 5773 5770 5768 5766 5763 5761 5760 5758 5757 5755 5753 5751 5750 5749 5749 5749 5748 5747 5745
5839 5834 5830 5826 5823 5819 5816 5812 5809 5806 5803 5801 5798 5796 5794 5792 5790 5788 5786 5783 5781 5779 5777 5775 5773 5771 5768 5766 5764 5762 5760 5759 5757 5755 5753 5752 5750 5750 5749 5749 5748 5747 5745
5840 5835 5832 5828 5824 5821 5817 5814 5810 5807 5804 5801 5799 5797 5795 5793 5791 5789 5787 5784 5782 5780 5778 5775 5773 5771 5769 5767 5764 5762 5761 5759 5758 5756 5754 5753 5752 5751 5749 5749 5749 5748 5747
5839 5835 5832 5829 5825 5822 5818 5815 5811 5808 5805 5802 5800 5797 5795 5793 5791 5789 5787 5785 5783 5781 5779 5777 5775 5773 5771 5768 5766 5764 5762 5761 5760 5758 5756 5754 5754 5753 5751 5750 5749 5749 5748
5838 5835 5832 5829 5825 5822 5819 5815 5812 5809 5806 5803 5801 5798 5796 5794 5792 5790 5788 5786 5784 5782 5780 5778 5776 5775 5773 5771 5769 5767 5765 5763 5762 5761 5759 5758 5757 5757 5755 5753 5751 5751 5749
5839 5834 5831 5827 5825 5822 5819 5815 5812 5809 5806 5804 5801 5799 5797 5795 5793 5791 5789 5787 5785 5783 5781 5780 5778 5777 5775 5773 5772 5770 5768 5766 5765 5764 5763 5761 5760 5759 5757 5755 5754 5752 5751
5837 5833 5829 5826 5823 5820 5817 5814 5811 5808 5806 5803 5801 5799 5797 5795 5793 5791 5790 5788 5786 5784 5783 5781 5779 5778 5777 5775 5774 5772 5770 5769 5767 5766 5765 5764 5763 5761 5759 5757 5756 5754 5753
5834 5831 5828 5825 5822 5819 5816 5813 5810 5807 5805 5803 5801 5799 5797 5795 5793 5792 5790 5788 5787 5786 5784 5782 5781 5779 5778 5777 5775 5774 5772 5771 5770 5769 5767 5766 5765 5763 5761 5759 5758 5756 5755
5830 5828 5826 5823 5821 5818 5815 5812 5809 5807 5804 5802 5800 5799 5797 5795 5793 5792 5790 5788 5787 5786 5785 5783 5782 5780 5778 5777 5776 5775 5774 5773 5773 5771 5770 5770 5768 5766 5764 5762 5760 5759 5757
5827 5826 5825 5822 5819 5816 5813 5810 5807 5805 5803 5801 5799 5798 5796 5795 5793 5791 5790 5788 5787 5786 5785 5784 5782 5780 5778 5777 5776 5775 5774 5774 5773 5773 5773 5773 5772 5771 5768 5766 5763 5761 5759
5832 5827 5824 5821 5818 5814 5810 5808 5804 5802 5800 5799 5797 5796 5795 5793 5791 5790 5788 5788 5787 5786 5784 5783 5781 5779 5778 5777 5776 5774 5774 5774 5773 5773 5774 5775 5775 5774 5773 5771 5767 5764 5761
5831 5828 5824 5820 5815 5812 5809 5806 5802 5800 5798 5796 5796 5794 5792 5790 5789 5789 5787 5786 5785 5785 5784 5782 5780 5779 5777 5776 5774 5773 5773 5772 5773 5773 5774 5775 5776 5776 5776 5774 5770 5767 5763
5832 5829 5826 5820 5815 5811 5807 5803 5800 5797 5796 5796 5795 5793 5790 5788 5787 5787 5787 5786 5784 5783 5782 5780 5778 5776 5774 5773 5772 5772 5771 5771 5771 5771 5773 5775 5776 5776 5776 5774 5771 5768 5764
5831 5829 5826 5821 5815 5810 5805 5801 5799 5796 5794 5792 5791 5791 5789 5787 5786 5785 5784 5784 5783 5782 5780 5778 5776 5774 5772 5771 5770 5770 5769 5769 5769 5769 5770 5771 5773 5774 5774 5773 5771 5768 5765
5828 5825 5822 5817 5811 5805 5802 5799 5797 5795 5793 5791 5790 5789 5788 5786 5785 5782 5781 5780 5780 5779 5776 5774 5772 5770 5768 5767 5766 5766 5765 5765 5765 5764 5765 5766 5767 5769 5771 5771 5770 5768 5765
5818 5813 5810 5807 5800 5797 5795 5792 5791 5790 5789 5788 5787 5786 5785 5784 5783 5780 5777 5776 5775 5774 5771 5768 5765 5762 5761 5759 5758 5759 5759 5759 5759 5759 5760 5760 5761 5763 5766 5768 5768 5767 5765
5808 5803 5797 5794 5788 5785 5784 5784 5782 5781 5781 5781 5780 5779 5779 5779 5778 5776 5774 5771 5768 5765 5763 5760 5758 5755 5752 5751 5750 5751 5752 5752 5753 5753 5753 5754 5755 5758 5761 5763 5765 5765 5764
5797 5793 5788 5782 5778 5776 5773 5771 5771 5771 5772 5774 5773 5772 5771 5771 5771 5769 5766 5763 5758 5755 5752 5749 5747 5747 5745 5743 5742 5744 5745 5746 5747 5747 5747 5748 5750 5753 5756 5759 5761 5762 5763
5786 5782 5776 5770 5768 5767 5763 5760 5759 5759 5763 5765 5766 5766 5764 5763 5762 5759 5757 5754 5750 5748 5747 5743 5739 5737 5736 5735 5731 5731 5736 5739 5741 5742 5741 5741 5743 5748 5752 5754 5756 5758 5760
5777 5773 5769 5765 5761 5758 5755 5753 5753 5753 5755 5757 5758 5758 5757 5756 5755 5752 5748 5747 5744 5742 5740 5737 5732 5729 5729 5727 5722 5718 5717 5724 5732 5736 5734 5733 5735 5739 5743 5746 5748 5751 5753
5773 5768 5764 5760 5756 5753 5750 5747 5745 5744 5744 5744 5745 5747 5748 5748 5748 5746 5744 5743 5740 5738 5735 5734 5730 5725 5722 5722 5719 5713 5707 5707 5715 5724 5725 5725 5726 5729 5732 5735 5739 5742 5745
5770 5766 5760 5755 5750 5747 5743 5738 5734 5730 5728 5730 5732 5736 5738 5739 5739 5740 5740 5738 5736 5734 5732 5730 5727 5723 5719 5715 5714 5712 5709 5707 5703 5706 5713 5715 5718 5720 5724 5728 5731 5735 5737
5767 5760 5754 5749 5744 5740 5737 5732 5727 5723 5722 5723 5724 5726 5728 5730 5731 5732 5732 5731 5730 5728 5726 5724 5721 5718 5715 5712 5709 5706 5703 5701 5701 5697 5697 5702 5706 5712 5716 5720 5723 5726 5728
5760 5753 5746 5740 5735 5732 5728 5724 5720 5716 5714 5714 5714 5716 5718 5720 5722 5723 5723 5723 5722 5720 5719 5717 5715 5712 5710 5707 5704 5701 5697 5694 5693 5692 5690 5691 5693 5700 5707 5711 5713 5716 5718